{"data":{"norad_id":48368,"intl_designator":"2021-038R","name":"STARLINK-2623","alt_names":[],"object_type":"PAYLOAD","status":"ACTIVE","operator":null,"country":"US","launch_date":"2021-05-04","launch_site_code":"AFETR","launch_vehicle":null,"mission":null,"orbit_class":"UNKNOWN","rcs_meters":null,"size_class":null,"mass_kg":null,"dimensions":null,"purposes":["comms"],"wikipedia_slug":null,"has_3d_model":false,"image_url":null,"decayed_at":null,"tle_current":{"epoch":"2026-05-24T22:52:04.715040Z","epoch_age_seconds":86004,"freshness":"FRESH","line1":"1 48368U 21038R   26144.95283235  .00003544  00000+0  13170-3 0  9997","line2":"2 48368  53.1612 353.5506 0001160 104.1184 255.9946 15.30201867278902","mean_motion":15.30201867,"eccentricity":0.000116,"inclination_deg":53.1612,"raan_deg":353.5506,"arg_perigee_deg":104.1184,"mean_anomaly_deg":255.9946,"bstar":0.0001317,"rev_number":27890,"period_min":94.105230888468,"perigee_km":474.41450670611,"apogee_km":476.00448309293,"semimajor_km":6853.3464948995,"source":"CELESTRAK","updated_at":"2026-05-25T13:38:16.687201Z"}}}